Regional Weather Roundup
Issued by NWS

Home | Current Version | Previous Version | Graphics & Text | Print | Product List | Glossary On
Versions: 1 2 3 4 5 6 7 8 9 10 11 12 13 14 15 16 17 18 19 20 21 22 23 24 25 26 27 28 29 30 31 32 33 34 35 36 37 38 39 40 41 42 43 44 45 46 47 48 49 50
000
ASUS44 KMEG 030700
RWRTN
TENNESSEE HOURLY STATE WEATHER ROUNDUP
NATIONAL WEATHER SERVICE MEMPHIS TN
200 AM CDT WED JUN 03 2015

TNZ002-004-019-021-049-052-054-088>092-030800-
WEST TENNESSEE

CITY           SKY/WX    TMP DP  RH WIND       PRES   REMARKS
MEMPHIS INTL   CLEAR     64  60  87 NE5       30.01S
NWS MEMPHIS      N/A     60 N/A N/A MISG        N/A
JACKSON        PTCLDY    57  55  93 CALM      30.01F FOG
DYERSBURG      CLOUDY    63  48  59 CALM      30.02S
PARIS          CLOUDY    61  57  88 E7        30.02F
LEXINGTON      CLOUDY    63  59  88 NE5       30.00F
$$

TNZ008-025-027-028-033-062-065-066-030800-
NORTH MIDDLE TENNESSEE

CITY           SKY/WX    TMP DP  RH WIND       PRES   REMARKS
NASHVILLE      CLOUDY    62  58  86 NE7       30.03F
CLARKSVILLE    CLOUDY    60  58  92 CALM      30.03F FOG
COOKEVILLE     CLEAR     59  57  94 N3        30.01F
CROSSVILLE     CLOUDY    60  57  89 NE7       30.03F
$$

TNZ061-075-076-078-094-096-097-030800-
SOUTH MIDDLE TENNESSEE

CITY           SKY/WX    TMP DP  RH WIND       PRES   REMARKS
FAYETTEVILLE   PTCLDY   N/A N/A N/A MISG      30.00F
TULLAHOMA      CLOUDY    63  59  88 N5        30.02F
WINCHESTER     MOCLDY    63  61  94 CALM      30.01S
MCMINNVILLE    CLOUDY    63  63 100 N6        30.02S
COLUMBIA       CLOUDY    63  61  94 CALM      30.00F
SHELBYVILLE    MOCLDY    63  63 100 N3        30.03S
$$

TNZ017-018-042-046-047-030800-
NORTHEAST TENNESSEE

CITY           SKY/WX    TMP DP  RH WIND       PRES   REMARKS
TRI CITIES     PTCLDY    60  59  96 CALM      30.04S
ELIZABETHTON   SUNNY     54  54 100 CALM      30.04F
$$

TNZ012-013-036-069-073-074-030800-
CENTRAL EAST TENNESSEE

CITY           SKY/WX    TMP DP  RH WIND       PRES   REMARKS
KNOXVILLE      CLEAR     62  60  93 NE8       29.99F
OAK RIDGE      CLEAR     63  58  83 E6        30.02F
GATLINBURG     PTSUNNY   57  57 100 CALM      30.01F
$$

TNZ083-085-099-030800-
SOUTHEAST TENNESSEE

CITY           SKY/WX    TMP DP  RH WIND       PRES   REMARKS
CHATTANOOGA    PTCLDY    65  61  87 N5        29.99S
$$

SKY/WX REPORTED AS FAIR MEANS FEW OR NO CLOUDS BELOW
12 THOUSAND FEET.




USA.gov is the U.S. government's official web portal to all federal, state and local government web resources and services.